Preview of NWS' New Version of Forecast
This preview is not operational and should not be used for support decisions.

Regional Weather Roundup (RWR)

Issued by National Weather Service (NWS)

                            
000
ASUS45 KBOI 190610
RWRID 

IDAHO REGIONAL WEATHER ROUNDUP
NATIONAL WEATHER SERVICE BOISE ID
1100 PM MST MON FEB 18 2019

NOTE: "FAIR" INDICATES FEW OR NO CLOUDS BELOW 12000 FEET
WITH NO SIGNIFICANT WEATHER AND/OR OBSTRUCTIONS TO VISIBILITY

IDZ012-014-190700-
SOUTHWEST IDAHO

  
CITY           SKY/WX    TMP DP  RH WIND       PRES   REMARKS
BOISE          PTCLDY    25  13  60 W7        30.15F WCI  17          
CALDWELL       CLEAR     26  18  71 W12       30.20S WCI  16          
MOUNTAIN HOME  MOCLDY    25  25 100 W16         N/A  WCI  12          
$$

IDZ016-017-190700-
SOUTHCENTRAL IDAHO

  
CITY           SKY/WX    TMP DP  RH WIND       PRES   REMARKS
BURLEY         CLOUDY    20  11  68 SW12      30.03F WCI   8          
JEROME         PTCLDY    19  11  70 SW13      30.03F WCI   6          
TWIN FALLS     CLEAR     17  10  74 SW17      30.04F WCI   1          
$$

IDZ019>023-190700-
SOUTHEAST IDAHO

  
CITY           SKY/WX    TMP DP  RH WIND       PRES   REMARKS
IDAHO FALLS    LGT SNOW  17  13  84 NW12      30.00S FOG     WCI   4  
POCATELLO      CLOUDY    21  15  78 W21       30.03S WCI   5          
REXBURG        LGT SNOW  14  10  84 N7        30.00S FOG     WCI   4  
$$

IDZ006-010-011-018-031-032-190700-
CENTRAL IDAHO MOUNTAINS

  
CITY           SKY/WX    TMP DP  RH WIND       PRES   REMARKS
MCCALL         CLOUDY    12   7  80 N3        30.03S                  
HAILEY         CLOUDY    10   7  85 W9        29.97S WCI  -2          
STANLEY          N/A     -5  -9  83 CALM      29.96F                  
SALMON         CLOUDY    15   7  70 SE6       30.09S WCI   6          
CHALLIS        MOCLDY     9  -1  64 E6        30.02S WCI  -1          
$$

IDZ002-004-006-007-026-190700-
NORTHERN IDAHO

  
CITY           SKY/WX    TMP DP  RH WIND       PRES   REMARKS
LEWISTON       CLOUDY    26  19  74 CALM      30.28F                  
LOWELL         NOT AVBL                                               
COEUR D'ALENE  CLOUDY     7   4  87 E3        30.23S                  
MULLAN PASS    MOCLDY     2  -2  83 W3        29.93F                  
$$